User: anonymous   Login
Location: Unspecified
(0.0000°N, 0.0000°E)
Time: 03:00:42
(UTC+00:00)
Language:

HODOYOSHI 4 - Orbit

View from above orbital plane
View from above orbital plane
View from above satellite
View from above satellite

Ground track
Ground track

The orbit data is extracted from the following two-line orbital elements,

1 40011U 14033B   17324.70929827  .00000165  00000-0  27967-4 0  9995
2 40011  97.8692 220.1929 0027980 119.9288 240.4715 14.80941285184927
Epoch (UTC): 20 November 2017 17:01:23
Eccentricity: 0.0027980
inclination: 97.8692°
perigee height: 607 km
apogee height: 646 km
right ascension of ascending node: 220.1929°
argument of perigee: 119.9288°
revolutions per day: 14.80941285
mean anomaly at epoch: 240.4715°
orbit number at epoch: 18492

The dashed part of the orbit path shows where the satellite is in the earth's shadow,  

DLR